Location: Aldenham
(51.6667°N, 0.3500°W)
Time: 17:45:03
(UTC+00:00)

Explorer 7 - Pass Details

Date: 23 February 2026
Orbit: 430 x 542 km, 50.2° (Epoch: 8 March)

Event Time Altitude Azimuth Distance (km) Brightness Sun altitude
Rises 12:41:27 0° 206° (SSW) 2,393 11.2 28.4°
Reaches altitude 10° 12:44:05 10° 184° (S) 1,540 10.8 28.3°
Maximum altitude 12:46:20 16° 143° (SE) 1,218 9.4 28.2°
Drops below altitude 10° 12:48:37 10° 103° (ESE) 1,571 9.3 28.2°
Sets 12:51:20 0° 82° (E) 2,468 10.0 28.1°
